E0050 Weather Reports


time (UTC)temp
F
wind
direction
speed
knots
gust
knots
rain 1hr
in
rain 24hr
in
rain mn
in
humidity
%
barometer
mb
20260510093022 65 104 4.3 14.8 0.00 0.08 0.00 82 1011.1
20260510091518 65 121 5.2 13.0 0.00 0.08 0.00 82 1010.8
20260510090052 65 101 2.6 14.8 0.00 0.08 0.00 81 1010.7
20260510084522 65 120 2.6 13.9 0.00 0.08 0.00 81 1010.5
20260510083056 65 124 5.2 11.3 0.00 0.08 0.00 81 1010.4
20260510081533 64 100 4.3 12.2 0.00 0.08 0.00 82 1010.4
20260510080058 64 103 3.5 8.7 0.00 0.08 0.00 82 1010.5
20260510074554 64 86 3.5 8.7 0.00 0.08 0.00 82 1010.7
20260510073031 64 76 2.6 8.7 0.00 0.08 0.00 82 1010.5
20260510071519 64 101 4.3 8.7 0.00 0.08 0.00 83 1010.4
20260510070049 64 92 3.5 8.7 0.00 0.08 0.00 83 1010.2
20260510064553 64 90 4.3 14.8 0.00 0.08 0.00 82 1010.2
20260510063012 63 136 2.6 11.3 0.00 0.08 0.00 83 1010.1
20260510061508 63 104 1.7 8.7 0.00 0.08 0.00 82 1010.0
20260510060039 63 152 1.7 7.8 0.00 0.08 0.00 82 1009.9
20260510054514 63 97 1.7 7.8 0.00 0.08 0.00 82 1009.9
20260510053046 62 63 0.9 7.0 0.00 0.08 0.00 83 1009.8
20260510051544 62 141 2.6 7.0 0.00 0.08 0.00 84 1009.6
20260510050113 61 121 0.9 4.3 0.00 0.08 0.00 84 1009.5
20260510044550 61 114 0.0 2.6 0.00 0.08 0.00 84 1009.3
20260510043116 61 119 0.0 2.6 0.00 0.08 0.00 85 1009.3
20260510041555 60 128 0.0 3.5 0.00 0.08 0.00 86 1009.5
20260510040024 60 72 0.0 7.8 0.00 0.08 0.00 87 1009.3
20260510034513 59 79 3.5 9.6 0.00 0.08 0.00 87 1009.2
20260510033046 59 79 1.7 4.3 0.00 0.08 0.00 88 1009.4
20260510031551 60 136 0.0 2.6 0.00 0.08 0.00 88 1009.7
20260510030012 60 165 0.0 0.0 0.00 0.08 0.00 88 1009.9
20260510024504 60 165 0.0 2.6 0.00 0.08 0.00 87 1009.9
20260510023035 60 86 0.0 1.7 0.01 0.08 0.08 87 1010.1
20260510021537 60 86 0.0 1.7 0.02 0.08 0.08 87 1010.2
20260510020101 60 95 2.6 6.1 0.02 0.08 0.08 87 1010.3
20260510014615 60 111 0.0 4.3 0.03 0.08 0.08 87 1010.4
20260510013026 60 121 0.0 2.6 0.03 0.07 0.07 87 1010.2
20260510011522 60 103 0.9 5.2 0.02 0.06 0.06 86 1010.3
20260510010053 60 107 0.9 3.5 0.02 0.06 0.06 86 1010.2
20260510004527 60 128 0.0 1.7 0.02 0.05 0.05 86 1010.6
20260510003105 60 130 0.0 2.6 0.01 0.04 0.04 86 1010.7
20260510001555 59 128 0.9 5.2 0.01 0.04 0.04 86 1010.6
20260510000020 60 217 0.0 1.7 0.00 0.03 0.03 86 1010.5
20260509234602 60 217 0.0 2.6 0.00 0.03 0.03 86 1010.6
20260509233026 60 155 0.9 2.6 0.01 0.03 0.03 86 1010.4
20260509231521 61 154 0.9 2.6 0.01 0.03 0.03 85 1010.8
20260509230053 61 157 0.0 0.9 0.01 0.03 0.03 85 1011.3
20260509224556 61 157 0.0 1.7 0.01 0.03 0.03 84 1011.6
20260509223017 61 157 0.0 0.9 0.00 0.02 0.02 83 1011.9
20260509221514 61 157 0.0 1.7 0.00 0.02 0.02 82 1011.7
20260509220042 62 156 0.0 2.6 0.00 0.02 0.02 81 1011.2
20260509214537 63 164 0.0 1.7 0.02 0.02 0.02 79 1011.5
20260509213006 63 164 0.0 2.6 0.02 0.02 0.02 77 1011.5
20260509211602 63 112 0.0 4.3 0.02 0.02 0.02 76 1011.1
20260509210032 64 92 1.7 7.0 0.02 0.02 0.02 75 1011.3
20260509204524 64 61 3.5 7.0 0.01 0.01 0.01 73 1012.1
20260509203054 65 96 0.0 4.3 0.01 0.01 0.01 71 1011.9
20260509201557 66 82 1.7 5.2 0.01 0.01 0.01 69 1011.5
20260509200018 67 69 2.6 8.7 0.00 0.00 0.00 65 1011.5
20260509194513 67 95 1.7 9.6 0.00 0.00 0.00 62 1011.5
20260509193044 67 115 3.5 9.6 0.00 0.00 0.00 61 1011.4
20260509191540 67 134 2.6 8.7 0.00 0.00 0.00 60 1011.2
20260509190007 67 121 4.3 9.6 0.00 0.00 0.00 60 1011.0
20260509184504 67 69 2.6 7.8 0.00 0.00 0.00 61 1010.8
20260509183033 67 114 2.6 7.0 0.00 0.00 0.00 61 1010.9
20260509181529 68 137 1.7 8.7 0.00 0.00 0.00 61 1011.0
20260509174556 68 101 2.6 5.2 0.00 0.00 0.00 61 1011.0
20260509173024 69 151 1.7 8.7 0.00 0.00 0.00 61 1010.9
20260509171532 69 94 1.7 7.0 0.00 0.00 0.00 61 1011.1
20260509170056 70 138 3.5 7.0 0.00 0.00 0.00 60 1011.2
20260509164551 70 119 1.7 8.7 0.00 0.00 0.00 60 1011.3
20260509163014 70 170 2.6 8.7 0.00 0.00 0.00 59 1011.0
20260509161507 71 107 3.5 11.3 0.00 0.00 0.00 59 1011.1
20260509160037 72 109 2.6 13.0 0.00 0.00 0.00 57 1011.1
20260509154533 72 90 4.3 10.4 0.00 0.00 0.00 55 1010.9
20260509153103 72 86 1.7 7.0 0.00 0.00 0.00 57 1011.0
20260509151539 72 117 3.5 9.6 0.00 0.00 0.00 57 1011.4
20260509150015 72 127 3.5 15.6 0.00 0.00 0.00 55 1011.6
20260509144501 73 113 1.7 9.6 0.00 0.00 0.00 55 1011.9
20260509143035 72 90 3.5 9.6 0.00 0.00 0.00 56 1012.1
20260509141532 71 111 3.5 10.4 0.00 0.00 0.00 54 1012.3
20260509140104 72 144 1.7 13.0 0.00 0.00 0.00 53 1012.6
20260509134625 72 134 2.6 11.3 0.00 0.00 0.00 56 1012.8
20260509133023 71 140 1.7 8.7 0.00 0.00 0.00 56 1013.0
20260509131525 71 105 3.5 9.6 0.00 0.00 0.00 56 1013.4
20260509130050 71 93 2.6 7.8 0.00 0.00 0.00 56 1013.5
20260509124525 71 115 4.3 9.6 0.00 0.00 0.00 57 1013.5
20260509123056 71 153 3.5 11.3 0.00 0.00 0.00 58 1013.6
20260509121530 71 78 5.2 14.8 0.00 0.00 0.00 57 1013.8
20260509120101 71 138 6.1 13.9 0.00 0.00 0.00 56 1014.0
20260509114556 71 150 4.3 14.8 0.00 0.00 0.00 55 1014.1
20260509113024 72 142 6.1 19.1 0.00 0.00 0.00 53 1014.2
20260509111520 72 297 3.5 16.5 0.00 0.00 0.00 54 1014.4
20260509110051 71 121 6.1 13.0 0.00 0.00 0.00 53 1014.6
20260509104542 70 111 6.1 16.5 0.00 0.00 0.00 52 1014.6
20260509103010 70 132 3.5 12.2 0.00 0.00 0.00 52 1014.8
20260509101506 71 113 5.2 12.2 0.00 0.00 0.00 54 1014.9
20260509100036 70 126 5.2 10.4 0.00 0.00 0.00 58 1014.8
20260509094533 70 107 4.3 10.4 0.00 0.00 0.00 60 1014.9